This demonstration page uses our WeatherBlox Daily Observations layout. Learn more.

Left ArrowRight Arrow

39.71368, -82.59933

Hourly Observations for February 12, 2023

Temp ( °F °C ) Dew Point ( °F °C ) Humidity (%) Winds ( mph kmh ) Pressure ( in mb ) Visibility ( mi km ) Precip ( " mm )
12:53 am 00:53 Clear 25 -3.9 23 -5 92 92 Calm 30.20 1023 10 16 0.00 0.00
1:53 am 01:53 Clear 24 -4.4 21 -6.1 88 88 Calm 30.16 1021 10 16 0.00 0.00
2:53 am 02:53 Clear 23 -5 19 -7.2 84 84 Calm 30.15 1021 10 16 0.00 0.00
3:53 am 03:53 Clear 22 -5.6 19 -7.2 88 88 NNW 3 6 30.13 1020 10 16 0.00 0.00
4:53 am 04:53 Clear 24 -4.4 21 -6.1 88 88 Calm 30.12 1020 10 16 0.00 0.00
5:53 am 05:53 Clear 22 -5.6 19 -7.2 88 88 Calm 30.12 1020 9 14 0.00 0.00
6:53 am 06:53 Clear 23 -5 20 -6.7 88 88 NNW 3 6 30.11 1020 10 16 0.00 0.00
7:53 am 07:53 Sunny 24 -4.4 20 -6.7 84 84 Calm 30.10 1019 10 16 0.00 0.00
8:53 am 08:53 Sunny 32 0 25 -3.9 75 75 N 6 9 30.09 1019 10 16 0.00 0.00
9:53 am 09:53 Sunny 38 3.3 26 -3.3 62 62 NNE 8 13 30.07 1018 10 16 0.00 0.00
10:53 am 10:53 Sunny 42 5.6 25 -3.9 50 50 NNE 12 19 30.05 1018 10 16 0.00 0.00
11:53 am 11:53 Sunny 46 7.8 20 -6.7 35 35 NNE 15 24 29.99 1016 10 16 0.00 0.00
12:53 pm 12:53 Sunny 50 10 15 -9.4 24 24 NNE 10 17 29.95 1014 10 16 0.00 0.00
1:53 pm 13:53 Sunny 53 11.7 13 -10.6 20 20 NE 7 11 29.93 1014 10 16 0.00 0.00
2:53 pm 14:53 Sunny 54 12.2 16 -8.9 22 22 N 7 11 29.92 1013 10 16 0.00 0.00
3:53 pm 15:53 Sunny 54 12.2 15 -9.4 21 21 N 9 15 29.90 1013 10 16 0.00 0.00
4:53 pm 16:53 Sunny 53 11.7 13 -10.6 20 20 N 9 15 29.90 1012 10 16 0.00 0.00
5:53 pm 17:53 Sunny 49 9.4 15 -9.4 25 25 N 5 7 29.91 1013 10 16 0.00 0.00
6:53 pm 18:53 Clear 40 4.4 19 -7.2 43 43 WNW 3 6 29.91 1013 10 16 0.00 0.00
7:53 pm 19:53 Clear 31 -0.6 22 -5.6 69 69 Calm 29.91 1013 10 16 0.00 0.00
8:53 pm 20:53 Clear 29 -1.7 23 -5 78 78 Calm 29.91 1013 10 16 0.00 0.00
9:53 pm 21:53 Clear 28 -2.2 21 -6.1 75 75 Calm 29.91 1013 10 16 0.00 0.00
10:53 pm 22:53 Clear 26 -3.3 20 -6.7 77 77 Calm 29.91 1013 10 16 0.00 0.00
11:53 pm 23:53 Clear 25 -3.9 19 -7.2 78 78 Calm 29.91 1013 10 16 0.00 0.00

Powered by AerisWeather